Time,TemperatureF,DewpointF,PressureIn,WindDirection,WindDirectionDegrees,WindSpeedMPH,WindSpeedGustMPH,Humidity,HourlyPrecipIn,Conditions,Clouds,dailyrainin,SoftwareType,DateUTC
2013-01-01 00:10:00,19.5,15.0,30.21,North,355,4.0,8.0,84,0.00,,,0.01,weatherlink.com 1.10,2013-01-01 06:10:00,
2013-01-01 00:25:00,19.1,15.0,30.20,North,355,11.0,12.0,82,0.00,,,0.01,weatherlink.com 1.10,2013-01-01 06:25:00,
2013-01-01 00:40:00,18.9,14.0,30.20,North,360,6.0,11.0,82,0.00,,,0.01,weatherlink.com 1.10,2013-01-01 06:40:00,
2013-01-01 00:55:00,18.9,14.0,30.20,NNW,348,6.0,9.0,82,0.00,,,0.01,weatherlink.com 1.10,2013-01-01 06:55:00,
2013-01-01 01:10:00,18.9,15.0,30.20,North,355,5.0,9.0,83,0.00,,,0.01,weatherlink.com 1.10,2013-01-01 07:10:00,
2013-01-01 01:25:00,18.8,15.0,30.20,North,355,5.0,9.0,83,0.00,,,0.01,weatherlink.com 1.10,2013-01-01 07:25:00,
2013-01-01 01:40:00,18.7,14.0,30.21,NNW,342,3.0,7.0,82,0.00,,,0.01,weatherlink.com 1.10,2013-01-01 07:40:00,
2013-01-01 01:55:00,18.7,14.0,30.21,NW,319,5.0,6.0,83,0.00,,,0.01,weatherlink.com 1.10,2013-01-01 07:55:00,
2013-01-01 02:10:00,18.6,14.0,30.22,NNW,342,5.0,8.0,82,0.00,,,0.00,weatherlink.com 1.10,2013-01-01 08:10:00,
2013-01-01 02:25:00,18.6,14.0,30.22,North,355,7.0,7.0,83,0.00,,,0.00,weatherlink.com 1.10,2013-01-01 08:25:00,
2013-01-01 02:40:00,18.5,14.0,30.23,North,5,4.0,9.0,83,0.00,,,0.00,weatherlink.com 1.10,2013-01-01 08:40:00,
2013-01-01 02:55:00,18.5,14.0,30.23,North,355,3.0,9.0,83,0.00,,,0.00,weatherlink.com 1.10,2013-01-01 08:55:00,
2013-01-01 03:10:00,18.4,14.0,30.22,North,5,7.0,10.0,83,0.00,,,0.00,weatherlink.com 1.10,2013-01-01 09:10:00,
2013-01-01 03:25:00,18.4,14.0,30.23,NNW,337,5.0,9.0,83,0.00,,,0.00,weatherlink.com 1.10,2013-01-01 09:25:00,
2013-01-01 03:40:00,18.3,14.0,30.21,NNW,341,5.0,10.0,83,0.00,,,0.00,weatherlink.com 1.10,2013-01-01 09:40:00,
2013-01-01 03:55:00,18.4,14.0,30.22,NW,323,3.0,8.0,83,0.00,,,0.00,weatherlink.com 1.10,2013-01-01 09:55:00,
2013-01-01 04:10:00,18.4,14.0,30.23,NNW,348,6.0,8.0,83,0.00,,,0.00,weatherlink.com 1.10,2013-01-01 10:10:00,
2013-01-01 04:25:00,18.4,14.0,30.24,NW,321,6.0,7.0,83,0.00,,,0.00,weatherlink.com 1.10,2013-01-01 10:25:00,
2013-01-01 04:40:00,18.3,14.0,30.25,NNW,337,2.0,6.0,83,0.00,,,0.00,weatherlink.com 1.10,2013-01-01 10:40:00,
2013-01-01 04:55:00,18.2,14.0,30.25,NNW,331,5.0,7.0,83,0.00,,,0.00,weatherlink.com 1.10,2013-01-01 10:55:00,
2013-01-01 05:10:00,18.0,14.0,30.25,NNW,342,5.0,6.0,83,0.00,,,0.00,weatherlink.com 1.10,2013-01-01 11:10:00,
2013-01-01 05:25:00,17.3,13.0,30.24,NNW,338,6.0,9.0,83,0.00,,,0.00,weatherlink.com 1.10,2013-01-01 11:25:00,
2013-01-01 05:40:00,16.3,12.0,30.23,North,10,6.0,11.0,84,0.00,,,0.00,weatherlink.com 1.10,2013-01-01 11:40:00,
2013-01-01 05:55:00,15.5,12.0,30.24,North,351,4.0,10.0,84,0.00,,,0.00,weatherlink.com 1.10,2013-01-01 11:55:00,
2013-01-01 06:10:00,14.8,11.0,30.25,North,349,3.0,9.0,84,0.00,,,0.00,weatherlink.com 1.10,2013-01-01 12:10:00,
2013-01-01 06:25:00,14.0,10.0,30.25,North,355,3.0,9.0,84,0.00,,,0.00,weatherlink.com 1.10,2013-01-01 12:25:00,
2013-01-01 06:40:00,13.4,9.0,30.25,North,355,6.0,10.0,84,0.00,,,0.00,weatherlink.com 1.10,2013-01-01 12:40:00,
2013-01-01 06:55:00,12.7,9.0,30.25,North,360,5.0,7.0,85,0.00,,,0.00,weatherlink.com 1.10,2013-01-01 12:55:00,
2013-01-01 07:10:00,12.2,9.0,30.24,North,5,7.0,10.0,85,0.00,,,0.00,weatherlink.com 1.10,2013-01-01 13:10:00,
2013-01-01 07:25:00,11.4,8.0,30.21,North,355,6.0,9.0,86,0.00,,,0.00,weatherlink.com 1.10,2013-01-01 13:25:00,
2013-01-01 07:40:00,11.5,8.0,30.23,NNW,343,5.0,10.0,87,0.00,,,0.00,weatherlink.com 1.10,2013-01-01 13:40:00,
2013-01-01 07:55:00,11.6,9.0,30.28,WNW,290,1.0,7.0,87,0.00,,,0.00,weatherlink.com 1.10,2013-01-01 13:55:00,
2013-01-01 08:11:00,11.7,8.0,30.29,WNW,290,0.0,3.0,86,0.00,,,0.00,weatherlink.com 1.10,2013-01-01 14:11:00,
2013-01-01 08:26:00,11.4,8.0,30.31,WNW,290,0.0,2.0,86,0.00,,,0.00,weatherlink.com 1.10,2013-01-01 14:26:00,
2013-01-01 08:41:00,12.4,9.0,30.31,WNW,290,1.0,2.0,86,0.00,,,0.00,weatherlink.com 1.10,2013-01-01 14:41:00,
2013-01-01 08:56:00,13.2,9.0,30.30,NW,323,2.0,4.0,83,0.00,,,0.00,weatherlink.com 1.10,2013-01-01 14:56:00,
2013-01-01 09:11:00,12.8,9.0,30.33,WNW,291,5.0,7.0,83,0.00,,,0.00,weatherlink.com 1.10,2013-01-01 15:11:00,
2013-01-01 09:26:00,12.6,8.0,30.33,WNW,303,4.0,8.0,83,0.00,,,0.00,weatherlink.com 1.10,2013-01-01 15:26:00,
2013-01-01 09:41:00,12.6,8.0,30.33,NW,325,5.0,7.0,83,0.00,,,0.00,weatherlink.com 1.10,2013-01-01 15:41:00,
2013-01-01 09:56:00,13.6,9.0,30.34,NNW,330,3.0,7.0,82,0.00,,,0.00,weatherlink.com 1.10,2013-01-01 15:56:00,
2013-01-01 10:11:00,14.9,10.0,30.34,NNW,336,6.0,7.0,80,0.00,,,0.00,weatherlink.com 1.10,2013-01-01 16:11:00,
2013-01-01 10:26:00,15.3,10.0,30.34,North,350,4.0,8.0,79,0.00,,,0.00,weatherlink.com 1.10,2013-01-01 16:26:00,
2013-01-01 10:41:00,15.8,10.0,30.32,WNW,298,5.0,11.0,78,0.00,,,0.00,weatherlink.com 1.10,2013-01-01 16:41:00,
2013-01-01 10:56:00,15.8,10.0,30.32,North,5,2.0,8.0,77,0.00,,,0.00,weatherlink.com 1.10,2013-01-01 16:56:00,
2013-01-01 11:11:00,16.3,10.0,30.32,North,360,4.0,7.0,76,0.00,,,0.00,weatherlink.com 1.10,2013-01-01 17:11:00,
2013-01-01 11:26:00,16.5,10.0,30.31,North,350,6.0,9.0,76,0.00,,,0.00,weatherlink.com 1.10,2013-01-01 17:26:00,
2013-01-01 11:41:00,16.7,10.0,30.32,WNW,298,5.0,6.0,76,0.00,,,0.00,weatherlink.com 1.10,2013-01-01 17:41:00,
2013-01-01 11:56:00,16.8,10.0,30.31,NNW,333,3.0,7.0,76,0.00,,,0.00,weatherlink.com 1.10,2013-01-01 17:56:00,
2013-01-01 12:11:00,17.0,11.0,30.31,NW,311,3.0,7.0,76,0.00,,,0.00,weatherlink.com 1.10,2013-01-01 18:11:00,
2013-01-01 12:26:00,17.2,11.0,30.30,WNW,300,6.0,7.0,76,0.00,,,0.00,weatherlink.com 1.10,2013-01-01 18:26:00,
2013-01-01 12:41:00,17.3,11.0,30.29,NW,321,6.0,7.0,75,0.00,,,0.00,weatherlink.com 1.10,2013-01-01 18:41:00,
2013-01-01 12:56:00,17.3,11.0,30.29,NW,308,2.0,9.0,75,0.00,,,0.00,weatherlink.com 1.10,2013-01-01 18:56:00,
2013-01-01 13:11:00,17.5,11.0,30.28,NW,319,3.0,9.0,75,0.00,,,0.00,weatherlink.com 1.10,2013-01-01 19:11:00,
2013-01-01 13:26:00,17.8,11.0,30.28,WNW,290,5.0,10.0,75,0.00,,,0.00,weatherlink.com 1.10,2013-01-01 19:26:00,
2013-01-01 13:41:00,18.3,11.0,30.28,NW,311,3.0,7.0,74,0.00,,,0.00,weatherlink.com 1.10,2013-01-01 19:41:00,
2013-01-01 13:56:00,18.5,12.0,30.27,WNW,301,3.0,5.0,74,0.00,,,0.00,weatherlink.com 1.10,2013-01-01 19:56:00,
2013-01-01 14:11:00,18.8,12.0,30.28,WNW,288,4.0,7.0,73,0.00,,,0.00,weatherlink.com 1.10,2013-01-01 20:11:00,
2013-01-01 14:26:00,18.4,11.0,30.28,WNW,303,4.0,9.0,73,0.00,,,0.00,weatherlink.com 1.10,2013-01-01 20:26:00,
2013-01-01 14:41:00,18.0,10.0,30.28,WNW,296,5.0,10.0,72,0.00,,,0.00,weatherlink.com 1.10,2013-01-01 20:41:00,
2013-01-01 14:56:00,17.7,10.0,30.28,NW,322,2.0,11.0,73,0.00,,,0.00,weatherlink.com 1.10,2013-01-01 20:56:00,
2013-01-01 15:11:00,17.7,10.0,30.29,WNW,288,6.0,10.0,72,0.00,,,0.00,weatherlink.com 1.10,2013-01-01 21:11:00,
2013-01-01 15:26:00,17.9,10.0,30.29,WNW,291,4.0,9.0,71,0.00,,,0.00,weatherlink.com 1.10,2013-01-01 21:26:00,
2013-01-01 15:41:00,17.8,10.0,30.29,NW,307,3.0,11.0,71,0.00,,,0.00,weatherlink.com 1.10,2013-01-01 21:41:00,
2013-01-01 15:56:00,17.6,10.0,30.29,NNW,338,3.0,10.0,71,0.00,,,0.00,weatherlink.com 1.10,2013-01-01 21:56:00,
2013-01-01 16:11:00,16.8,9.0,30.29,NW,317,3.0,7.0,72,0.00,,,0.00,weatherlink.com 1.10,2013-01-01 22:11:00,
2013-01-01 16:26:00,16.0,9.0,30.30,NW,306,2.0,5.0,74,0.00,,,0.00,weatherlink.com 1.10,2013-01-01 22:26:00,
2013-01-01 16:41:00,15.4,9.0,30.30,NNW,348,0.0,4.0,75,0.00,,,0.00,weatherlink.com 1.10,2013-01-01 22:41:00,
2013-01-01 16:56:00,15.3,9.0,30.30,NW,313,0.0,3.0,77,0.00,,,0.00,weatherlink.com 1.10,2013-01-01 22:56:00,
2013-01-01 17:11:00,15.4,9.0,30.30,NW,313,2.0,3.0,77,0.00,,,0.00,weatherlink.com 1.10,2013-01-01 23:11:00,
2013-01-01 17:26:00,15.2,9.0,30.30,NW,313,0.0,2.0,77,0.00,,,0.00,weatherlink.com 1.10,2013-01-01 23:26:00,
2013-01-01 17:41:00,14.9,9.0,30.30,NW,313,1.0,1.0,78,0.00,,,0.00,weatherlink.com 1.10,2013-01-01 23:41:00,
2013-01-01 17:56:00,14.4,9.0,30.31,NW,313,0.0,2.0,79,0.00,,,0.00,weatherlink.com 1.10,2013-01-01 23:56:00,
2013-01-01 18:11:00,14.5,9.0,30.31,NW,313,1.0,3.0,79,0.00,,,0.00,weatherlink.com 1.10,2013-01-02 00:11:00,
2013-01-01 18:26:00,14.6,9.0,30.30,NW,313,1.0,3.0,78,0.00,,,0.00,weatherlink.com 1.10,2013-01-02 00:26:00,
2013-01-01 18:41:00,14.4,9.0,30.31,NW,313,1.0,3.0,78,0.00,,,0.00,weatherlink.com 1.10,2013-01-02 00:41:00,
2013-01-01 18:56:00,14.1,8.0,30.31,NW,313,2.0,3.0,78,0.00,,,0.00,weatherlink.com 1.10,2013-01-02 00:56:00,
2013-01-01 19:11:00,14.0,8.0,30.31,NW,313,0.0,3.0,78,0.00,,,0.00,weatherlink.com 1.10,2013-01-02 01:11:00,
2013-01-01 19:26:00,13.8,8.0,30.31,NW,313,0.0,2.0,78,0.00,,,0.00,weatherlink.com 1.10,2013-01-02 01:26:00,
2013-01-01 19:41:00,13.6,8.0,30.31,NW,313,0.0,2.0,79,0.00,,,0.00,weatherlink.com 1.10,2013-01-02 01:41:00,
2013-01-01 19:56:00,13.2,8.0,30.30,NW,313,0.0,2.0,80,0.00,,,0.00,weatherlink.com 1.10,2013-01-02 01:56:00,
2013-01-01 20:11:00,13.0,8.0,30.30,NW,313,0.0,3.0,80,0.00,,,0.00,weatherlink.com 1.10,2013-01-02 02:11:00,
2013-01-01 20:26:00,13.0,8.0,30.29,NW,313,2.0,3.0,80,0.00,,,0.00,weatherlink.com 1.10,2013-01-02 02:26:00,
2013-01-01 20:41:00,13.0,8.0,30.30,NW,313,2.0,3.0,79,0.00,,,0.00,weatherlink.com 1.10,2013-01-02 02:41:00,
2013-01-01 20:56:00,12.7,8.0,30.30,NW,313,1.0,3.0,80,0.00,,,0.00,weatherlink.com 1.10,2013-01-02 02:56:00,
2013-01-01 21:11:00,12.7,8.0,30.30,NW,313,1.0,2.0,80,0.00,,,0.00,weatherlink.com 1.10,2013-01-02 03:11:00,
2013-01-01 21:26:00,12.6,8.0,30.30,NW,313,0.0,2.0,81,0.00,,,0.00,weatherlink.com 1.10,2013-01-02 03:26:00,
2013-01-01 21:41:00,12.5,8.0,30.30,NW,313,0.0,1.0,82,0.00,,,0.00,weatherlink.com 1.10,2013-01-02 03:41:00,
2013-01-01 21:56:00,11.9,7.0,30.30,NW,313,0.0,1.0,82,0.00,,,0.00,weatherlink.com 1.10,2013-01-02 03:56:00,
2013-01-01 22:11:00,11.0,7.0,30.31,NW,313,0.0,1.0,85,0.00,,,0.00,weatherlink.com 1.10,2013-01-02 04:11:00,
2013-01-01 22:26:00,11.0,8.0,30.31,NW,313,0.0,1.0,86,0.00,,,0.00,weatherlink.com 1.10,2013-01-02 04:26:00,
2013-01-01 22:41:00,10.7,7.0,30.31,NW,313,0.0,0.0,85,0.00,,,0.00,weatherlink.com 1.10,2013-01-02 04:41:00,
2013-01-01 22:56:00,10.5,7.0,30.31,NW,313,0.0,2.0,86,0.00,,,0.00,weatherlink.com 1.10,2013-01-02 04:56:00,
2013-01-01 23:11:00,10.8,7.0,30.30,NW,313,0.0,0.0,85,0.00,,,0.00,weatherlink.com 1.10,2013-01-02 05:11:00,
2013-01-01 23:26:00,10.2,7.0,30.30,NW,313,0.0,0.0,86,0.00,,,0.00,weatherlink.com 1.10,2013-01-02 05:26:00,
2013-01-01 23:41:00,10.1,7.0,30.30,NW,313,0.0,2.0,86,0.00,,,0.00,weatherlink.com 1.10,2013-01-02 05:41:00,
2013-01-01 23:56:00,10.3,7.0,30.29,NW,313,1.0,2.0,85,0.00,,,0.00,weatherlink.com 1.10,2013-01-02 05:56:00,